Weather Roundup
Issued by NWS Springfield, MO

Home | Current Version | Previous Version | Text Only | Print | Product List | Glossary On
Versions: 1 2 3 4 5 6 7 8 9 10 11 12 13 14 15 16 17 18 19 20 21 22 23 24 25 26 27 28 29 30 31 32 33 34 35 36 37 38 39 40 41 42 43 44 45 46 47 48 49 50
000
NZUS99 KSGF 061259
HRRSGF

HOURLY WEATHER
NATIONAL WEATHER SERVICE SPRINGFIELD MO
700 AM CST FRI MAR 06 2015

......SGF CWA......

CITY           SKY/WX    TMP DP  RH WIND       PRES   REMARKS
SPRINGFIELD    CLEAR     21  13  71 S13       30.43F WCI   9
JOPLIN         CLEAR     29  17  61 SW15      30.45F WCI  18
WEST PLAINS    PTCLDY    16   6  65 S7        30.50F WCI   6
ROLLA          CLEAR     20   8  60 S13       30.43F WCI   7
OSAGE BEACH    CLEAR     19   9  63 S7        30.43F WCI  10
BRANSON        CLEAR     16  12  86 CALM      30.49F

......SURROUNDING SGF CWA......

CITY           SKY/WX    TMP DP  RH WIND       PRES   REMARKS
CHANUTE        CLEAR     27  19  72 S13       30.40F WCI  16
PARSONS        CLEAR     25  19  78 S8        30.43F WCI  16
COFFEYVILLE    CLEAR     26  18  71 S12       30.45F WCI  16
EMPORIA        CLEAR     29  20  69 SW10      30.33S WCI  20
SILOAM SPRINGS CLEAR     23  12  63 S5        30.50F WCI  17
HARRISON AR    CLEAR     17  12  80 SE6       30.49S WCI   9
NEAR YELLVILLE CLEAR     10   5  79 CALM      30.53S

......KANSAS AND MISSOURI......

CITY           SKY/WX    TMP DP  RH WIND       PRES   REMARKS
KANSAS CTY INT PTCLDY    29  18  63 SW17      30.28F WCI  17
DOWNTOWN KC    CLEAR     33  17  51 SW20G26   30.30F WCI  21
COLUMBIA       CLEAR     20  10  65 S13       30.40F WCI   7
SEDALIA        CLEAR     27  14  58 SW16G25   30.37F WCI  15
ST JOSEPH      FAIR      26  18  71 S7        30.28S WCI  18
ST LOUIS       CLEAR     17   7  64 S9        30.52S WCI   6
SPIRIT OF STL  CLEAR     16   8  71 CALM      30.51S
KIRKSVILLE     CLOUDY    21  12  68 S13       30.31F WCI   9
WICHITA        CLEAR     23  19  85 S9        30.36F WCI  13
TOPEKA         CLEAR     30  19  63 SW7       30.31S WCI  23
OLATHE         CLEAR     27  18  69 SW14G21   30.30F WCI  16

......TENNESSEE......

CITY           SKY/WX    TMP DP  RH WIND       PRES   REMARKS
MEMPHIS        PTCLDY    16   9  74 CALM      30.60R
NASHVILLE      PTCLDY    12   6  77 NW5       30.57R WCI   4

......ARKANSAS.......

CITY           SKY/WX    TMP DP  RH WIND       PRES   REMARKS
FAYETTEVILLE   CLEAR     18  16  92 CALM      30.50F
FT SMITH       CLEAR     23  20  88 CALM      30.57R
LITTLE ROCK    CLEAR     18  14  84 CALM      30.63R

......OKLAHOMA.......

CITY           SKY/WX    TMP DP  RH WIND       PRES   REMARKS
TULSA          CLEAR     27  19  72 S9        30.49S WCI  18
PONCA CITY     CLEAR     28  20  71 S6        30.43S WCI  22
MCALESTER      CLEAR     22  18  85 CALM      30.54S
OKLAHOMA CITY  CLEAR     23  16  74 S3        30.46S

......IOWA............

CITY           SKY/WX    TMP DP  RH WIND       PRES   REMARKS
DES MOINES     PTCLDY    22  12  65 S12       30.20F WCI  10
QUAD CITIES    CLEAR      9   0  67 S12       30.36F WCI  -6

......ILLINOIS........

CITY           SKY/WX    TMP DP  RH WIND       PRES   REMARKS
QUINCY         CLEAR     14   5  67 S12       30.39F WCI   0
CHICAGO        MOCLDY     6  -1  73 SW12      30.42F WCI  -9




USA.gov is the U.S. government's official web portal to all federal, state and local government web resources and services.